User: anonymous   Login
Location: SAPM � Hemmingford
(45.0500°N, 73.5833°W)
Time: 13:29:55
(UTC-05:00)
Language:

Iridium 75 - Orbit

View from above orbital plane
View from above orbital plane
View from above satellite
View from above satellite

Ground track
Ground track

The orbit data is extracted from the following two-line orbital elements,

1 25346U 98032E   15029.54185267  .00000134  00000-0  40737-4 0  1611
2 25346 086.3940 227.5709 0001973 106.2983 281.7109 14.34216412875021
Epoch (UTC): 29 January 2015 13:00:16
Eccentricity: 0.0001973
inclination: 86.3940°
perigee height: 776 km
apogee height: 779 km
right ascension of ascending node: 227.5709°
argument of perigee: 106.2983°
revolutions per day: 14.34216412
mean anomaly at epoch: 281.7109°
orbit number at epoch: 87502

The dashed part of the orbit path shows where the satellite is in the earth's shadow,  

DLR